,,,PA_Meas_PMT16A,,PR_Meas_QMR101_102,,RH_Meas_QMH101,,SR_Meas_QMS101,,TA_Meas_QMH101,,GenWind,,GenWind,
date,time,status,PA,status,PR,status,RH,status,SR,status,TA,status,DirAvg,status,SpdAvg,
2010-07-24, 00:00:05,VALID,1000.31,VALID,0,VALID,93.4552,VALID,0,VALID,23.3305,VALID,20,VALID,0,
2010-07-24, 00:01:05,VALID,1000.28,VALID,0,VALID,93.4934,VALID,0,VALID,23.3695,VALID,20,VALID,0,
2010-07-24, 00:02:05,VALID,1000.25,VALID,0,VALID,93.5163,VALID,0,VALID,23.389,VALID,20,VALID,0,
2010-07-24, 00:03:05,VALID,1000.25,VALID,0,VALID,93.562,VALID,0,VALID,23.3695,VALID,20,VALID,0,
2010-07-24, 00:04:05,VALID,1000.24,VALID,0,VALID,93.5773,VALID,0,VALID,23.389,VALID,20,VALID,0,
2010-07-24, 00:05:05,VALID,1000.19,VALID,0,VALID,93.5926,VALID,0,VALID,23.4085,VALID,20,VALID,0,
2010-07-24, 00:06:05,VALID,1000.21,VALID,0,VALID,93.6307,VALID,0,VALID,23.428,VALID,20,VALID,0,
2010-07-24, 00:07:05,VALID,1000.19,VALID,0,VALID,93.6383,VALID,0,VALID,23.428,VALID,20,VALID,0,
2010-07-24, 00:08:05,VALID,1000.17,VALID,0,VALID,93.6383,VALID,0,VALID,23.428,VALID,20,VALID,0,
2010-07-24, 00:09:05,VALID,1000.16,VALID,0,VALID,93.646,VALID,0,VALID,23.428,VALID,20,VALID,0,
2010-07-24, 00:10:05,VALID,1000.15,VALID,0,VALID,93.6307,VALID,0,VALID,23.3677,VALID,20,VALID,0,
2010-07-24, 00:11:05,VALID,1000.13,VALID,0,VALID,93.6383,VALID,0,VALID,23.3695,VALID,20,VALID,0,
2010-07-24, 00:12:05,VALID,1000.1,VALID,0,VALID,93.6231,VALID,0,VALID,23.3305,VALID,20,VALID,0,
2010-07-24, 00:13:05,VALID,1000.12,VALID,0,VALID,93.646,VALID,0,VALID,23.2897,VALID,20,VALID,0,
2010-07-24, 00:14:05,VALID,1000.11,VALID,0,VALID,93.6765,VALID,0,VALID,23.35,VALID,20,VALID,0,
2010-07-24, 00:15:05,VALID,1000.11,VALID,0,VALID,93.707,VALID,0,VALID,23.4085,VALID,95,VALID,0.719922,
2010-07-24, 00:16:05,VALID,1000.1,VALID,0,VALID,93.7223,VALID,0,VALID,23.4263,VALID,103,VALID,0.865625,
2010-07-24, 00:17:05,VALID,1000.1,VALID,0,VALID,93.7299,VALID,0,VALID,23.4671,VALID,108,VALID,0.841797,
2010-07-24, 00:18:05,VALID,1000.08,VALID,0,VALID,93.7299,VALID,0,VALID,23.4671,VALID,130,VALID,0.719922,
2010-07-24, 00:19:05,VALID,1000.1,VALID,0,VALID,93.7223,VALID,0,VALID,23.4475,VALID,130,VALID,0.727344,
2010-07-24, 00:20:05,VALID,1000.07,VALID,0,VALID,93.707,VALID,0,VALID,23.4475,VALID,130,VALID,0.663281,
2010-07-24, 00:21:05,VALID,1000.09,VALID,0,VALID,93.707,VALID,0,VALID,23.4475,VALID,130,VALID,0.646875,
2010-07-24, 00:22:05,VALID,1000.09,VALID,0,VALID,93.6917,VALID,0,VALID,23.4263,VALID,130,VALID,0.0195313,
2010-07-24, 00:23:05,VALID,1000.07,VALID,0,VALID,93.6917,VALID,0,VALID,23.4475,VALID,130,VALID,0,
2010-07-24, 00:24:05,VALID,1000.07,VALID,0,VALID,93.6917,VALID,0,VALID,23.428,VALID,130,VALID,0,
2010-07-24, 00:25:05,VALID,1000.05,VALID,0,VALID,93.646,VALID,0,VALID,23.4475,VALID,131,VALID,0,
2010-07-24, 00:26:05,VALID,1000.04,VALID,0,VALID,93.6383,VALID,0,VALID,23.428,VALID,130,VALID,0,
2010-07-24, 00:27:05,VALID,1000.05,VALID,0,VALID,93.6231,VALID,0,VALID,23.4085,VALID,130,VALID,0,
2010-07-24, 00:28:05,VALID,1000.06,VALID,0,VALID,93.6078,VALID,0,VALID,23.4085,VALID,121,VALID,0.358984,
2010-07-24, 00:29:05,VALID,1000.06,VALID,0,VALID,93.5849,VALID,0,VALID,23.4085,VALID,121,VALID,0.572656,
2010-07-24, 00:30:05,VALID,1000.06,VALID,0,VALID,93.5697,VALID,0,VALID,23.3695,VALID,121,VALID,0.578125,
2010-07-24, 00:31:05,VALID,1000.05,VALID,0,VALID,93.5544,VALID,0.112286,VALID,23.389,VALID,116,VALID,0.726172,
2010-07-24, 00:32:05,VALID,1000.05,VALID,0,VALID,93.5468,VALID,0,VALID,23.389,VALID,115,VALID,1.25195,
2010-07-24, 00:33:05,VALID,1000.02,VALID,0,VALID,93.5239,VALID,0,VALID,23.3677,VALID,118,VALID,1.05156,
2010-07-24, 00:34:05,VALID,999.989,VALID,0,VALID,93.4934,VALID,0,VALID,23.389,VALID,113,VALID,1.07031,
2010-07-24, 00:35:05,VALID,999.976,VALID,0,VALID,93.4628,VALID,0,VALID,23.4085,VALID,116,VALID,1.25078,
2010-07-24, 00:36:05,VALID,999.96,VALID,0,VALID,93.4094,VALID,0,VALID,23.4263,VALID,122,VALID,1.16641,
2010-07-24, 00:37:05,VALID,999.938,VALID,0,VALID,93.356,VALID,0,VALID,23.4671,VALID,133,VALID,1.21484,
2010-07-24, 00:38:05,VALID,999.93,VALID,0,VALID,93.2874,VALID,0,VALID,23.4866,VALID,126,VALID,0.763672,
2010-07-24, 00:39:05,VALID,999.896,VALID,0,VALID,93.1958,VALID,0,VALID,23.5061,VALID,130,VALID,1.00078,
2010-07-24, 00:40:05,VALID,999.879,VALID,0,VALID,93.1119,VALID,0,VALID,23.5061,VALID,136,VALID,0.801953,
2010-07-24, 00:41:05,VALID,999.884,VALID,0,VALID,93.0432,VALID,0,VALID,23.5061,VALID,141,VALID,0.680078,
2010-07-24, 00:42:05,VALID,999.872,VALID,0,VALID,93.0127,VALID,0,VALID,23.5256,VALID,141,VALID,0.566406,
2010-07-24, 00:43:05,VALID,999.852,VALID,0,VALID,92.9898,VALID,0,VALID,23.5238,VALID,141,VALID,0.415625,
2010-07-24, 00:44:05,VALID,999.827,VALID,0,VALID,92.944,VALID,0,VALID,23.5256,VALID,144,VALID,0.00820312,
2010-07-24, 00:45:05,VALID,999.842,VALID,0,VALID,92.9211,VALID,0,VALID,23.5451,VALID,153,VALID,0.658594,
2010-07-24, 00:46:05,VALID,999.801,VALID,0,VALID,92.9517,VALID,0,VALID,23.5433,VALID,153,VALID,0.642969,
2010-07-24, 00:47:05,VALID,999.826,VALID,0,VALID,92.9669,VALID,0,VALID,23.5841,VALID,168,VALID,0.852734,
2010-07-24, 00:48:05,VALID,999.826,VALID,0,VALID,92.9974,VALID,0,VALID,23.5841,VALID,172,VALID,0.792188,
2010-07-24, 00:49:05,VALID,999.838,VALID,0,VALID,93.0127,VALID,0,VALID,23.6036,VALID,172,VALID,0.602344,
2010-07-24, 00:50:05,VALID,999.805,VALID,0,VALID,92.9593,VALID,0,VALID,23.6036,VALID,172,VALID,0.937109,
2010-07-24, 00:51:05,VALID,999.795,VALID,0,VALID,92.9593,VALID,0,VALID,23.6036,VALID,172,VALID,0.930859,
2010-07-24, 00:52:05,VALID,999.819,VALID,0,VALID,92.8754,VALID,0,VALID,23.6232,VALID,172,VALID,0.925,
2010-07-24, 00:53:05,VALID,999.789,VALID,0,VALID,92.822,VALID,0,VALID,23.6036,VALID,169,VALID,0.807813,
2010-07-24, 00:54:05,VALID,999.769,VALID,0,VALID,92.7762,VALID,0,VALID,23.6036,VALID,162,VALID,0.7875,
2010-07-24, 00:55:05,VALID,999.765,VALID,0,VALID,92.6617,VALID,0,VALID,23.6036,VALID,162,VALID,0.591406,
2010-07-24, 00:56:05,VALID,999.736,VALID,0,VALID,92.5549,VALID,0,VALID,23.5841,VALID,153,VALID,0.645312,
2010-07-24, 00:57:05,VALID,999.732,VALID,0,VALID,92.4634,VALID,0,VALID,23.5841,VALID,136,VALID,0.739453,
2010-07-24, 00:58:05,VALID,999.724,VALID,0,VALID,92.4939,VALID,0,VALID,23.5646,VALID,122,VALID,0.678125,
2010-07-24, 00:59:05,VALID,999.722,VALID,0,VALID,92.5626,VALID,0,VALID,23.5646,VALID,122,VALID,0.648438,
2010-07-24, 01:00:05,VALID,999.696,VALID,0,VALID,92.5854,VALID,0,VALID,23.5646,VALID,122,VALID,0.73125,
2010-07-24, 01:01:05,VALID,999.696,VALID,0,VALID,92.5473,VALID,0,VALID,23.5451,VALID,122,VALID,0.598437,
2010-07-24, 01:02:05,VALID,999.661,VALID,0,VALID,92.5244,VALID,0,VALID,23.5061,VALID,116,VALID,0.566016,
2010-07-24, 01:03:05,VALID,999.636,VALID,0,VALID,92.5397,VALID,0,VALID,23.4866,VALID,92,VALID,0.762891,
2010-07-24, 01:04:05,VALID,999.614,VALID,0,VALID,92.6617,VALID,0,VALID,23.4671,VALID,103,VALID,0.879687,
2010-07-24, 01:05:05,VALID,999.596,VALID,0,VALID,92.738,VALID,0,VALID,23.4671,VALID,110,VALID,0.678125,
2010-07-24, 01:06:05,VALID,999.579,VALID,0,VALID,92.7685,VALID,0,VALID,23.4671,VALID,87,VALID,0.822656,
2010-07-24, 01:07:05,VALID,999.565,VALID,0,VALID,92.8372,VALID,0,VALID,23.4458,VALID,97,VALID,0.898828,
2010-07-24, 01:08:05,VALID,999.563,VALID,0,VALID,92.8677,VALID,0,VALID,23.4671,VALID,94,VALID,0.420312,
2010-07-24, 01:09:05,VALID,999.554,VALID,0,VALID,92.8372,VALID,0,VALID,23.4458,VALID,94,VALID,0.451953,
2010-07-24, 01:10:05,VALID,999.549,VALID,0,VALID,92.8601,VALID,0,VALID,23.4671,VALID,82,VALID,0.925391,
2010-07-24, 01:11:05,VALID,999.513,VALID,0,VALID,92.8143,VALID,0,VALID,23.4671,VALID,108,VALID,0.833594,
2010-07-24, 01:12:05,VALID,999.522,VALID,0,VALID,92.7914,VALID,0,VALID,23.4263,VALID,111,VALID,0.594141,
2010-07-24, 01:13:05,VALID,999.504,VALID,0,VALID,92.7609,VALID,0,VALID,23.428,VALID,108,VALID,0.694531,
2010-07-24, 01:14:05,VALID,999.489,VALID,0,VALID,92.7609,VALID,0,VALID,23.4067,VALID,103,VALID,0.783594,
2010-07-24, 01:15:05,VALID,999.479,VALID,0,VALID,92.7533,VALID,0,VALID,23.4085,VALID,99,VALID,0.392188,
2010-07-24, 01:16:05,VALID,999.463,VALID,0,VALID,92.7457,VALID,0,VALID,23.4085,VALID,98,VALID,0.266016,
2010-07-24, 01:17:05,VALID,999.464,VALID,0,VALID,92.7685,VALID,0,VALID,23.389,VALID,102,VALID,0.268359,
2010-07-24, 01:18:05,VALID,999.457,VALID,0,VALID,92.7609,VALID,0,VALID,23.3695,VALID,104,VALID,0,
2010-07-24, 01:19:05,VALID,999.46,VALID,0,VALID,92.7533,VALID,0,VALID,23.35,VALID,104,VALID,0,
2010-07-24, 01:20:05,VALID,999.45,VALID,0,VALID,92.7533,VALID,0,VALID,23.35,VALID,104,VALID,0,
2010-07-24, 01:21:05,VALID,999.431,VALID,0,VALID,92.7533,VALID,0,VALID,23.35,VALID,104,VALID,0,
2010-07-24, 01:22:05,VALID,999.409,VALID,0,VALID,92.7304,VALID,0,VALID,23.3305,VALID,132,VALID,0.277734,
2010-07-24, 01:23:05,VALID,999.415,VALID,0,VALID,92.7457,VALID,0,VALID,23.311,VALID,132,VALID,0.00234375,
2010-07-24, 01:24:05,VALID,999.371,VALID,0,VALID,92.7533,VALID,0,VALID,23.3305,VALID,132,VALID,0,
2010-07-24, 01:25:05,VALID,999.361,VALID,0,VALID,92.7075,VALID,0,VALID,23.3305,VALID,132,VALID,0,
2010-07-24, 01:26:05,VALID,999.352,VALID,0,VALID,92.6312,VALID,0,VALID,23.3305,VALID,132,VALID,0,
2010-07-24, 01:27:05,VALID,999.317,VALID,0,VALID,92.4863,VALID,0,VALID,23.2702,VALID,132,VALID,0,
2010-07-24, 01:28:05,VALID,999.324,VALID,0,VALID,92.3718,VALID,0,VALID,23.2915,VALID,132,VALID,0.418359,
2010-07-24, 01:29:05,VALID,999.337,VALID,0,VALID,92.2268,VALID,0,VALID,23.2702,VALID,130,VALID,0.521484,
2010-07-24, 01:30:05,VALID,999.31,VALID,0,VALID,92.0666,VALID,0,VALID,23.2915,VALID,130,VALID,0.546875,
2010-07-24, 01:31:05,VALID,999.3,VALID,0,VALID,92.0209,VALID,0,VALID,23.2915,VALID,118,VALID,1.0875,
2010-07-24, 01:32:05,VALID,999.266,VALID,0,VALID,91.914,VALID,0,VALID,23.311,VALID,118,VALID,0.674609,
2010-07-24, 01:33:05,VALID,999.291,VALID,0,VALID,91.7691,VALID,0,VALID,23.311,VALID,110,VALID,0.785156,
2010-07-24, 01:34:05,VALID,999.252,VALID,0,VALID,91.5783,VALID,0,VALID,23.3305,VALID,129,VALID,0.816797,
2010-07-24, 01:35:05,VALID,999.238,VALID,0,VALID,91.3266,VALID,0,VALID,23.3695,VALID,135,VALID,1.44453,
2010-07-24, 01:36:05,VALID,999.206,VALID,0,VALID,90.968,VALID,0,VALID,23.4085,VALID,128,VALID,0.920703,
2010-07-24, 01:37:05,VALID,999.189,VALID,0,VALID,90.6857,VALID,0,VALID,23.4475,VALID,120,VALID,0.9875,
2010-07-24, 01:38:05,VALID,999.158,VALID,0,VALID,90.5026,VALID,0,VALID,23.4866,VALID,112,VALID,0.707812,
2010-07-24, 01:39:05,VALID,999.19,VALID,0,VALID,90.3957,VALID,0,VALID,23.5061,VALID,100,VALID,1.19062,
2010-07-24, 01:40:05,VALID,999.171,VALID,0,VALID,90.1974,VALID,0,VALID,23.5451,VALID,105,VALID,0.880469,
2010-07-24, 01:41:05,VALID,999.18,VALID,0,VALID,90.0448,VALID,0,VALID,23.5841,VALID,113,VALID,0.403516,
2010-07-24, 01:42:05,VALID,999.174,VALID,0,VALID,90.0143,VALID,0,VALID,23.5646,VALID,136,VALID,0.771875,
2010-07-24, 01:43:05,VALID,999.183,VALID,0,VALID,89.999,VALID,0,VALID,23.5451,VALID,126,VALID,0.552734,
2010-07-24, 01:44:05,VALID,999.178,VALID,0,VALID,90.06,VALID,0,VALID,23.5256,VALID,141,VALID,0.9125,
2010-07-24, 01:45:05,VALID,999.163,VALID,0,VALID,90.1821,VALID,0,VALID,23.5256,VALID,154,VALID,0.298828,
2010-07-24, 01:46:05,VALID,999.13,VALID,0,VALID,90.2508,VALID,0,VALID,23.4848,VALID,154,VALID,0,
2010-07-24, 01:47:05,VALID,999.11,VALID,0,VALID,90.4644,VALID,0,VALID,23.4653,VALID,154,VALID,0,
2010-07-24, 01:48:05,VALID,999.079,VALID,0,VALID,90.6017,VALID,0.112286,VALID,23.4671,VALID,154,VALID,0,
2010-07-24, 01:49:04,VALID,999.088,VALID,0,VALID,90.678,VALID,0,VALID,23.4475,VALID,154,VALID,0,
2010-07-24, 01:50:04,VALID,999.069,VALID,0,VALID,90.617,VALID,0,VALID,23.389,VALID,154,VALID,0,
2010-07-24, 01:51:04,VALID,999.067,VALID,0,VALID,90.8077,VALID,0,VALID,23.35,VALID,154,VALID,0,
2010-07-24, 01:52:04,VALID,999.059,VALID,0,VALID,91.029,VALID,0,VALID,23.3305,VALID,154,VALID,0,
2010-07-24, 01:53:04,VALID,999.064,VALID,0,VALID,91.2655,VALID,0,VALID,23.311,VALID,154,VALID,0.131641,
2010-07-24, 01:54:04,VALID,999.072,VALID,0,VALID,91.5402,VALID,0,VALID,23.2915,VALID,154,VALID,0.398438,
2010-07-24, 01:55:04,VALID,999.059,VALID,0,VALID,91.7462,VALID,0,VALID,23.2915,VALID,154,VALID,0.179297,
2010-07-24, 01:56:04,VALID,999.048,VALID,0,VALID,91.853,VALID,0,VALID,23.2507,VALID,154,VALID,0,
2010-07-24, 01:57:04,VALID,999.078,VALID,0,VALID,91.9293,VALID,0,VALID,23.2524,VALID,154,VALID,0,
2010-07-24, 01:58:04,VALID,999.081,VALID,0,VALID,91.9751,VALID,0,VALID,23.2329,VALID,154,VALID,0,
2010-07-24, 01:59:04,VALID,999.042,VALID,0,VALID,92.0361,VALID,0,VALID,23.2134,VALID,154,VALID,0,
2010-07-24, 02:00:04,VALID,999.09,VALID,0,VALID,92.0819,VALID,0,VALID,23.1921,VALID,154,VALID,0,
2010-07-24, 02:01:04,VALID,999.071,VALID,0,VALID,92.0361,VALID,0,VALID,23.1939,VALID,154,VALID,0,
2010-07-24, 02:02:04,VALID,999.039,VALID,0,VALID,91.9369,VALID,0,VALID,23.1744,VALID,154,VALID,0,
2010-07-24, 02:03:04,VALID,999.031,VALID,0,VALID,91.8072,VALID,0,VALID,23.1549,VALID,154,VALID,0,
2010-07-24, 02:04:04,VALID,999.055,VALID,0,VALID,91.7538,VALID,0,VALID,23.1354,VALID,154,VALID,0,
2010-07-24, 02:05:04,VALID,999.008,VALID,0,VALID,91.7691,VALID,0,VALID,23.1159,VALID,154,VALID,0,
2010-07-24, 02:06:04,VALID,999.003,VALID,0,VALID,91.7385,VALID,0,VALID,23.0964,VALID,154,VALID,0,
2010-07-24, 02:07:04,VALID,998.992,VALID,0,VALID,91.8072,VALID,0,VALID,23.0964,VALID,154,VALID,0,
2010-07-24, 02:08:04,VALID,999.006,VALID,0,VALID,91.7843,VALID,0,VALID,23.0964,VALID,154,VALID,0,
2010-07-24, 02:09:04,VALID,998.992,VALID,0,VALID,91.9674,VALID,0,VALID,23.0964,VALID,154,VALID,0,
2010-07-24, 02:10:04,VALID,999.008,VALID,0,VALID,92.0743,VALID,0,VALID,23.0964,VALID,154,VALID,0,
2010-07-24, 02:11:04,VALID,999.016,VALID,0,VALID,92.1124,VALID,0,VALID,23.0964,VALID,154,VALID,0,
2010-07-24, 02:12:04,VALID,998.988,VALID,0,VALID,92.12,VALID,0,VALID,23.0769,VALID,154,VALID,0,
2010-07-24, 02:13:04,VALID,998.965,VALID,0,VALID,92.1429,VALID,0,VALID,23.0556,VALID,154,VALID,0,
2010-07-24, 02:14:04,VALID,998.996,VALID,0,VALID,92.1429,VALID,0,VALID,23.0573,VALID,154,VALID,0,
2010-07-24, 02:15:04,VALID,998.973,VALID,0,VALID,92.1658,VALID,0,VALID,23.0769,VALID,154,VALID,0.367578,
2010-07-24, 02:16:04,VALID,998.943,VALID,0,VALID,92.0361,VALID,0,VALID,23.0964,VALID,153,VALID,0.440234,
2010-07-24, 02:17:04,VALID,998.935,VALID,0,VALID,91.9369,VALID,0,VALID,23.0946,VALID,153,VALID,0.362109,
2010-07-24, 02:18:04,VALID,998.951,VALID,0,VALID,91.8301,VALID,0,VALID,23.1744,VALID,153,VALID,0.309375,
2010-07-24, 02:19:04,VALID,998.959,VALID,0,VALID,91.5783,VALID,0,VALID,23.1939,VALID,153,VALID,0.090625,
2010-07-24, 02:20:04,VALID,998.958,VALID,0,VALID,91.2579,VALID,0,VALID,23.1939,VALID,153,VALID,0,
2010-07-24, 02:21:04,VALID,998.947,VALID,0,VALID,91.2045,VALID,0,VALID,23.1939,VALID,153,VALID,0,
2010-07-24, 02:22:04,VALID,998.955,VALID,0,VALID,91.2426,VALID,0,VALID,23.1336,VALID,142,VALID,0.0804688,
2010-07-24, 02:23:04,VALID,998.952,VALID,0,VALID,91.3494,VALID,0,VALID,23.1336,VALID,43,VALID,0.928906,
2010-07-24, 02:24:04,VALID,998.957,VALID,0,VALID,91.9064,VALID,0,VALID,23.1726,VALID,37,VALID,0.799219,
2010-07-24, 02:25:04,VALID,998.952,VALID,0,VALID,92.0361,VALID,0,VALID,23.1939,VALID,37,VALID,0.703516,
2010-07-24, 02:26:04,VALID,998.934,VALID,0,VALID,91.8606,VALID,0,VALID,23.1354,VALID,37,VALID,0.651953,
2010-07-24, 02:27:04,VALID,998.962,VALID,0,VALID,91.7996,VALID,0,VALID,23.0964,VALID,37,VALID,0.377734,
2010-07-24, 02:28:04,VALID,998.961,VALID,0,VALID,91.9903,VALID,0,VALID,23.0769,VALID,37,VALID,0,
2010-07-24, 02:29:04,VALID,998.982,VALID,0,VALID,92.0895,VALID,0,VALID,23.0573,VALID,37,VALID,0,
2010-07-24, 02:30:04,VALID,998.963,VALID,0,VALID,92.2192,VALID,0,VALID,23.0573,VALID,37,VALID,0,
2010-07-24, 02:31:04,VALID,998.994,VALID,0,VALID,92.326,VALID,0,VALID,23.0573,VALID,37,VALID,0,
2010-07-24, 02:32:04,VALID,999.018,VALID,0,VALID,92.3794,VALID,0,VALID,23.0378,VALID,37,VALID,0,
2010-07-24, 02:33:04,VALID,999.024,VALID,0,VALID,92.4023,VALID,0,VALID,22.9988,VALID,37,VALID,0,
2010-07-24, 02:34:04,VALID,999.02,VALID,0,VALID,92.3871,VALID,0,VALID,22.9793,VALID,37,VALID,0,
2010-07-24, 02:35:04,VALID,998.985,VALID,0,VALID,92.4023,VALID,0,VALID,22.9598,VALID,37,VALID,0,
2010-07-24, 02:36:04,VALID,998.991,VALID,0,VALID,92.4634,VALID,0,VALID,22.9403,VALID,37,VALID,0,
2010-07-24, 02:37:04,VALID,998.984,VALID,0,VALID,92.5702,VALID,0,VALID,22.9403,VALID,37,VALID,0,
2010-07-24, 02:38:04,VALID,998.946,VALID,0,VALID,92.7609,VALID,0,VALID,22.9793,VALID,37,VALID,0,
2010-07-24, 02:39:04,VALID,998.936,VALID,0,VALID,92.7991,VALID,0,VALID,22.9598,VALID,37,VALID,0,
2010-07-24, 02:40:04,VALID,998.959,VALID,0,VALID,92.8067,VALID,0,VALID,22.9403,VALID,37,VALID,0,
2010-07-24, 02:41:04,VALID,998.946,VALID,0,VALID,92.8067,VALID,0,VALID,22.9208,VALID,37,VALID,0,
2010-07-24, 02:42:04,VALID,998.944,VALID,0,VALID,92.822,VALID,0,VALID,22.942,VALID,37,VALID,0,
2010-07-24, 02:43:04,VALID,998.926,VALID,0,VALID,92.883,VALID,0,VALID,22.9208,VALID,37,VALID,0,
2010-07-24, 02:44:04,VALID,998.923,VALID,0,VALID,92.9822,VALID,0,VALID,22.9403,VALID,37,VALID,0,
2010-07-24, 02:45:04,VALID,998.921,VALID,0,VALID,93.0432,VALID,0,VALID,22.9403,VALID,37,VALID,0,
2010-07-24, 02:46:04,VALID,998.899,VALID,0,VALID,93.0966,VALID,0,VALID,22.9403,VALID,37,VALID,0,
2010-07-24, 02:47:04,VALID,998.91,VALID,0,VALID,93.15,VALID,0,VALID,22.9208,VALID,37,VALID,0,
2010-07-24, 02:48:04,VALID,998.911,VALID,0,VALID,93.1729,VALID,0,VALID,22.9403,VALID,37,VALID,0,
2010-07-24, 02:49:04,VALID,998.91,VALID,0,VALID,93.2111,VALID,0,VALID,22.9403,VALID,37,VALID,0,
2010-07-24, 02:50:04,VALID,998.864,VALID,0,VALID,93.234,VALID,0,VALID,22.9208,VALID,37,VALID,0,
2010-07-24, 02:51:04,VALID,998.851,VALID,0,VALID,93.234,VALID,0,VALID,22.9208,VALID,37,VALID,0,
2010-07-24, 02:52:04,VALID,998.849,VALID,0,VALID,93.2874,VALID,0,VALID,22.9208,VALID,37,VALID,0,
2010-07-24, 02:53:04,VALID,998.795,VALID,0,VALID,93.2645,VALID,0,VALID,22.9013,VALID,37,VALID,0,
2010-07-24, 02:54:04,VALID,998.796,VALID,0,VALID,93.295,VALID,0,VALID,22.9208,VALID,37,VALID,0,
2010-07-24, 02:55:04,VALID,998.796,VALID,0,VALID,93.3179,VALID,0,VALID,22.9208,VALID,37,VALID,0,
2010-07-24, 02:56:04,VALID,998.794,VALID,0,VALID,93.3408,VALID,0,VALID,22.9013,VALID,37,VALID,0,
2010-07-24, 02:57:04,VALID,998.764,VALID,0,VALID,93.3637,VALID,0,VALID,22.9013,VALID,37,VALID,0,
2010-07-24, 02:58:04,VALID,998.756,VALID,0,VALID,93.3637,VALID,0,VALID,22.8818,VALID,37,VALID,0,
2010-07-24, 02:59:04,VALID,998.745,VALID,0,VALID,93.4018,VALID,0,VALID,22.9013,VALID,37,VALID,0,
2010-07-24, 03:00:04,VALID,998.759,VALID,0,VALID,93.3942,VALID,0,VALID,22.8995,VALID,37,VALID,0,
2010-07-24, 03:01:04,VALID,998.742,VALID,0,VALID,93.3942,VALID,0,VALID,22.9208,VALID,37,VALID,0,
2010-07-24, 03:02:04,VALID,998.767,VALID,0,VALID,93.3789,VALID,0,VALID,22.9208,VALID,37,VALID,0,
2010-07-24, 03:03:04,VALID,998.798,VALID,0,VALID,93.3637,VALID,0,VALID,22.9208,VALID,37,VALID,0,
2010-07-24, 03:04:04,VALID,998.781,VALID,0,VALID,93.3331,VALID,0,VALID,22.8818,VALID,37,VALID,0,
2010-07-24, 03:05:04,VALID,998.744,VALID,0,VALID,93.2187,VALID,0,VALID,22.8427,VALID,37,VALID,0,
2010-07-24, 03:06:04,VALID,998.769,VALID,0,VALID,93.1882,VALID,0,VALID,22.8037,VALID,37,VALID,0,
2010-07-24, 03:07:04,VALID,998.771,VALID,0,VALID,93.2263,VALID,0,VALID,22.8037,VALID,37,VALID,0,
2010-07-24, 03:08:04,VALID,998.756,VALID,0,VALID,93.2797,VALID,0,VALID,22.7825,VALID,37,VALID,0,
2010-07-24, 03:09:04,VALID,998.768,VALID,0,VALID,93.3179,VALID,0,VALID,22.8037,VALID,37,VALID,0,
2010-07-24, 03:10:04,VALID,998.717,VALID,0,VALID,93.3408,VALID,0,VALID,22.7842,VALID,37,VALID,0,
2010-07-24, 03:11:04,VALID,998.737,VALID,0,VALID,93.3789,VALID,0,VALID,22.7647,VALID,37,VALID,0,
2010-07-24, 03:12:04,VALID,998.744,VALID,0,VALID,93.4094,VALID,0,VALID,22.7647,VALID,37,VALID,0,
2010-07-24, 03:13:04,VALID,998.747,VALID,0,VALID,93.44,VALID,0,VALID,22.724,VALID,37,VALID,0,
2010-07-24, 03:14:04,VALID,998.764,VALID,0,VALID,93.44,VALID,0,VALID,22.7257,VALID,37,VALID,0,
2010-07-24, 03:15:04,VALID,998.775,VALID,0,VALID,93.4552,VALID,0,VALID,22.7062,VALID,37,VALID,0,
2010-07-24, 03:16:04,VALID,998.785,VALID,0,VALID,93.4781,VALID,0,VALID,22.6867,VALID,37,VALID,0,
2010-07-24, 03:17:04,VALID,998.798,VALID,0,VALID,93.4857,VALID,0,VALID,22.6264,VALID,37,VALID,0,
2010-07-24, 03:18:04,VALID,998.79,VALID,0,VALID,93.4857,VALID,0,VALID,22.5874,VALID,37,VALID,0,
2010-07-24, 03:19:04,VALID,998.781,VALID,0,VALID,93.5086,VALID,0,VALID,22.5892,VALID,37,VALID,0,
2010-07-24, 03:20:04,VALID,998.778,VALID,0,VALID,93.5086,VALID,0,VALID,22.5484,VALID,37,VALID,0,
2010-07-24, 03:21:04,VALID,998.801,VALID,0,VALID,93.5163,VALID,0,VALID,22.5696,VALID,37,VALID,0,
2010-07-24, 03:22:04,VALID,998.811,VALID,0,VALID,93.5773,VALID,0,VALID,22.6087,VALID,37,VALID,0,
2010-07-24, 03:23:04,VALID,998.835,VALID,0,VALID,93.6231,VALID,0,VALID,22.6282,VALID,37,VALID,0,
2010-07-24, 03:24:04,VALID,998.784,VALID,0,VALID,93.6383,VALID,0,VALID,22.6477,VALID,37,VALID,0,
2010-07-24, 03:25:04,VALID,998.822,VALID,0,VALID,93.6536,VALID,0,VALID,22.6282,VALID,37,VALID,0,
2010-07-24, 03:26:04,VALID,998.814,VALID,0,VALID,93.6612,VALID,0,VALID,22.6087,VALID,55,VALID,0.4625,
2010-07-24, 03:27:04,VALID,998.806,VALID,0,VALID,93.6688,VALID,0,VALID,22.5696,VALID,55,VALID,0.601172,
2010-07-24, 03:28:04,VALID,998.785,VALID,0,VALID,93.6841,VALID,0,VALID,22.5501,VALID,55,VALID,0.461719,
2010-07-24, 03:29:04,VALID,998.775,VALID,0,VALID,93.6765,VALID,0,VALID,22.5111,VALID,55,VALID,0.232812,
2010-07-24, 03:30:04,VALID,998.781,VALID,0,VALID,93.6841,VALID,0,VALID,22.5306,VALID,55,VALID,0.167187,
2010-07-24, 03:31:04,VALID,998.794,VALID,0,VALID,93.7146,VALID,0,VALID,22.5519,VALID,55,VALID,0.234766,
2010-07-24, 03:32:04,VALID,998.756,VALID,0,VALID,93.7528,VALID,0,VALID,22.5501,VALID,55,VALID,0.3,
2010-07-24, 03:33:04,VALID,998.759,VALID,0,VALID,93.7833,VALID,0,VALID,22.5892,VALID,55,VALID,0.361719,
2010-07-24, 03:34:04,VALID,998.748,VALID,0,VALID,93.7985,VALID,0,VALID,22.6087,VALID,55,VALID,0.275391,
2010-07-24, 03:35:04,VALID,998.766,VALID,0,VALID,93.8367,VALID,0,VALID,22.6264,VALID,55,VALID,0.211719,
2010-07-24, 03:36:04,VALID,998.754,VALID,0,VALID,93.8291,VALID,0,VALID,22.6477,VALID,55,VALID,0.0847656,
2010-07-24, 03:37:04,VALID,998.746,VALID,0,VALID,93.852,VALID,0,VALID,22.6264,VALID,55,VALID,0,
2010-07-24, 03:38:04,VALID,998.751,VALID,0,VALID,93.8138,VALID,0,VALID,22.5892,VALID,55,VALID,0,
2010-07-24, 03:39:04,VALID,998.755,VALID,0,VALID,93.8062,VALID,0,VALID,22.5484,VALID,55,VALID,0,
2010-07-24, 03:40:04,VALID,998.737,VALID,0,VALID,93.7985,VALID,0.112286,VALID,22.5289,VALID,55,VALID,0,
2010-07-24, 03:41:04,VALID,998.696,VALID,0,VALID,93.7909,VALID,0,VALID,22.5306,VALID,55,VALID,0,
2010-07-24, 03:42:04,VALID,998.687,VALID,0,VALID,93.8138,VALID,0,VALID,22.5696,VALID,55,VALID,0,
2010-07-24, 03:43:04,VALID,998.656,VALID,0,VALID,93.8138,VALID,0,VALID,22.5501,VALID,55,VALID,0,
2010-07-24, 03:44:04,VALID,998.655,VALID,0,VALID,93.8138,VALID,0,VALID,22.5501,VALID,55,VALID,0.225,
2010-07-24, 03:45:04,VALID,998.634,VALID,0,VALID,93.7985,VALID,0,VALID,22.4721,VALID,55,VALID,0.467578,
2010-07-24, 03:46:04,VALID,998.656,VALID,0,VALID,93.7757,VALID,0,VALID,22.4526,VALID,55,VALID,0.430469,
2010-07-24, 03:47:04,VALID,998.633,VALID,0,VALID,93.768,VALID,0,VALID,22.3941,VALID,1,VALID,0.619141,
2010-07-24, 03:48:04,VALID,998.657,VALID,0,VALID,93.7604,VALID,0,VALID,22.4136,VALID,1,VALID,0.546094,
2010-07-24, 03:49:04,VALID,998.641,VALID,0,VALID,93.7909,VALID,0,VALID,22.3924,VALID,1,VALID,0.380469,
2010-07-24, 03:50:04,VALID,998.671,VALID,0,VALID,93.7909,VALID,0,VALID,22.3924,VALID,1,VALID,0.272656,
2010-07-24, 03:51:04,VALID,998.676,VALID,0,VALID,93.8062,VALID,0,VALID,22.4136,VALID,1,VALID,0.00273437,
2010-07-24, 03:52:04,VALID,998.707,VALID,0,VALID,93.8138,VALID,0,VALID,22.4314,VALID,1,VALID,0,
2010-07-24, 03:53:04,VALID,998.698,VALID,0,VALID,93.8596,VALID,0,VALID,22.4509,VALID,1,VALID,0,